This is the latest recevied weather packets stored in our database for station/object SV9TNF-1. If no packets are shown the sender has not sent any weather packets the latest 1 day(s).
| Time | Temp. | Humidity | Pressure | Rain* | Wind** | Luminosity | Snow |
|---|---|---|---|---|---|---|---|
| 1778025314 | 17.78° C | 34% | 1004.1 hPa | 0 mm | 7.15 m/s, 345° | - | - |
| 1778025014 | 17.78° C | 33% | 1004.1 hPa | 0 mm | 5.81 m/s, 324° | - | - |
| 1778024714 | 17.78° C | 33% | 1004.1 hPa | 0 mm | 5.81 m/s, 323° | - | - |
| 1778024414 | 17.78° C | 33% | 1004.1 hPa | 0 mm | 5.81 m/s, 318° | - | - |
| 1778024114 | 17.78° C | 33% | 1004.1 hPa | 0 mm | 6.26 m/s, 319° | - | - |
| 1778023814 | 17.78° C | 33% | 1004.1 hPa | 0 mm | 8.05 m/s, 306° | - | - |
| 1778023514 | 17.22° C | 36% | 1004.1 hPa | 0 mm | 10.28 m/s, 331° | - | - |
| 1778023214 | 17.78° C | 35% | 1004.1 hPa | 0 mm | 8.49 m/s, 294° | - | - |
| 1778022914 | 17.78° C | 35% | 1004.1 hPa | 0 mm | 8.94 m/s, 319° | - | - |
| 1778022614 | 17.78° C | 35% | 1004.7 hPa | 0 mm | 8.94 m/s, 288° | - | - |
| 1778022314 | 17.78° C | 37% | 1004.7 hPa | 0 mm | 9.83 m/s, 329° | - | - |
| 1778022014 | 17.22° C | 37% | 1004.7 hPa | 0 mm | 10.28 m/s, 304° | - | - |
| 1778021713 | 17.22° C | 37% | 1004.7 hPa | 0 mm | 8.94 m/s, 350° | - | - |
| 1778021413 | 17.22° C | 37% | 1004.7 hPa | 0 mm | 9.39 m/s, 297° | - | - |
| 1778021113 | 17.78° C | 37% | 1005.1 hPa | 0 mm | 7.6 m/s, 328° | - | - |
| 1778020813 | 17.22° C | 37% | 1005.1 hPa | 0 mm | 8.94 m/s, 313° | - | - |
| 1778020513 | 17.22° C | 37% | 1005.1 hPa | 0 mm | 10.28 m/s, 287° | - | - |
| 1778020216 | 17.22° C | 37% | 1005.1 hPa | 0 mm | 10.73 m/s, 330° | - | - |
| 1778019913 | 17.22° C | 37% | 1005.1 hPa | 0 mm | 8.05 m/s, 317° | - | - |
| 1778019613 | 16.67° C | 38% | 1005.1 hPa | 0 mm | 9.39 m/s, 323° | - | - |
| 1778019313 | 17.22° C | 37% | 1005.1 hPa | 0 mm | 9.83 m/s, 327° | - | - |
| 1778019012 | 17.22° C | 37% | 1005.1 hPa | 0 mm | 8.05 m/s, 311° | - | - |
| 1778018713 | 17.78° C | 36% | 1005.1 hPa | 0 mm | 12.52 m/s, 296° | - | - |
| 1778018412 | 17.78° C | 36% | 1005.1 hPa | 0 mm | 10.28 m/s, 252° | - | - |
| 1778018112 | 17.22° C | 38% | 1005.1 hPa | 0 mm | 8.49 m/s, 337° | - | - |
* Rain latest hour (hover to see other rain measurements)
** Current wind speed in m/s (hover to see current wind gust speed)